Yuma MCAS, AZ

1:49 PM MST on May 21, 2018 (GMT -0700)
Yuma Marine Corps Air Station

Weather History for KNYL - June, 2013

Change the Weather History Date:

Friday, June 14, 2013

  Actual Average Record
Temperature  
Mean Temperature 91 °F 89 °F  
Max Temperature 105 °F 103 °F 119 °F (1961)
Min Temperature 77 °F 74 °F 55 °F (1943)
Degree Days  
Heating Degree Days 0 0  
Month to date heating degree days 0 0  
Since 1 June heating degree days 0 0  
Since 1 July heating degree days 705 686  
Cooling Degree Days 26 24  
Month to date cooling degree days 370 308  
Year to date cooling degree days 1431 1220  
Since 1 June cooling degree days 370 308  
Growing Degree Days 41 (Base 50)    
Moisture  
Dew Point 43 °F    
Average Humidity 24    
Maximum Humidity 40    
Minimum Humidity 8    
Precipitation  
Precipitation 0.00 in 0.00 in 0.01 in (1879)
Month to date precipitation 0.00 0.00  
Year to date precipitation 1.11 1.32  
Sea Level Pressure  
Sea Level Pressure 29.72 in    
Wind  
Wind Speed 10 mph (South)    
Max Wind Speed 20 mph    
Max Gust Speed 22 mph    
Visibility 10 miles    
Events      
T = Trace of Precipitation, MM = Missing Value Source: NWS Daily Summary

Daily Weather History Graph

Daily Weather History Graph

Search for Another Location

Airport or City:

Astronomy

Jun. 14, 2013 Rise Set
Actual Time 5:30 AM MST 7:47 PM MST
Civil Twilight 5:01 AM MST 8:16 PM MST
Nautical Twilight 4:26 AM MST 8:51 PM MST
Astronomical Twilight 3:48 AM MST 9:28 PM MST
Moon 10:53 AM MST (6/14) 11:43 PM MST (6/14)
Length of Visible Light 15h 14m
Length of Day
14h 17m
Waxing Crescent, 31% of the Moon is Illuminated
Jun 14
Waxing Crescent
Jun 16
First Quarter
Jun 23
Full
Jun 29
Last Quarter
Jul 8
New

Hourly Weather History & Observations

Time (MST) Temp. Heat Index Dew Point Humidity Pressure Visibility Wind Dir Wind Speed Gust Speed Precip Events Conditions
12:57 AM 82.0 °F - 42.1 °F 24% 29.74 in 10.0 mi SW 8.1 mph - N/A   Clear
1:57 AM 81.0 °F - 43.0 °F 26% 29.74 in 10.0 mi South 8.1 mph - N/A   Clear
2:57 AM 79.0 °F - 48.0 °F 34% 29.74 in 10.0 mi South 9.2 mph - N/A   Clear
3:57 AM 78.1 °F - 45.0 °F 31% 29.74 in 10.0 mi SSE 8.1 mph - N/A   Clear
4:57 AM 78.1 °F - 45.0 °F 31% 29.75 in 10.0 mi SSE 5.8 mph - N/A   Scattered Clouds
5:57 AM 79.0 °F - 46.9 °F 32% 29.76 in 10.0 mi SSE 8.1 mph - N/A   Scattered Clouds
6:57 AM 81.0 °F 80.5 °F 54.0 °F 39% 29.77 in 10.0 mi SSE 5.8 mph - N/A   Scattered Clouds
7:57 AM 84.9 °F 83.9 °F 57.0 °F 38% 29.78 in 10.0 mi SSE 13.8 mph - N/A   Partly Cloudy
8:57 AM 90.0 °F - 48.0 °F 24% 29.79 in 10.0 mi SSE 13.8 mph - N/A   Clear
9:57 AM 93.0 °F 90.6 °F 53.1 °F 26% 29.78 in 10.0 mi SSE 15.0 mph - N/A   Partly Cloudy
10:57 AM 95.0 °F - 52.0 °F 23% 29.77 in 10.0 mi SSW 11.5 mph - N/A   Partly Cloudy
11:57 AM 98.1 °F - 46.0 °F 17% 29.75 in 10.0 mi South 11.5 mph 16.1 mph N/A   Partly Cloudy
12:57 PM 100.9 °F - 46.0 °F 15% 29.73 in 10.0 mi SSW 10.4 mph - N/A   Partly Cloudy
1:57 PM 102.0 °F - 41.0 °F 12% 29.71 in 10.0 mi Variable 5.8 mph - N/A   Partly Cloudy
2:57 PM 102.9 °F - 37.9 °F 11% 29.69 in 10.0 mi South 9.2 mph 17.3 mph N/A   Partly Cloudy
3:57 PM 104.0 °F - 39.0 °F 11% 29.67 in 10.0 mi South 11.5 mph - N/A   Partly Cloudy
4:57 PM 102.9 °F - 34.0 °F 9% 29.65 in 10.0 mi South 12.7 mph - N/A   Partly Cloudy
5:57 PM 102.0 °F - 30.0 °F 8% 29.64 in 10.0 mi South 11.5 mph - N/A   Clear
6:57 PM 99.0 °F - 30.0 °F 9% 29.64 in 10.0 mi SSE 13.8 mph - N/A   Partly Cloudy
7:57 PM 93.9 °F - 34.0 °F 12% 29.65 in 10.0 mi SSE 9.2 mph - N/A   Partly Cloudy
8:57 PM 91.0 °F - 32.0 °F 12% 29.66 in 10.0 mi SSE 11.5 mph - N/A   Partly Cloudy
9:57 PM 88.0 °F - 39.0 °F 18% 29.68 in 10.0 mi SSE 15.0 mph - N/A   Clear
10:57 PM 84.0 °F - 48.0 °F 28% 29.70 in 10.0 mi SSE 11.5 mph - N/A   Clear
11:57 PM 82.9 °F - 48.0 °F 29% 29.71 in 10.0 mi South 5.8 mph - N/A   Clear